[[{"header":{"parameterUnit":"m.s-1","parameterCategory":1,"la1":30.2991,"la2":30.254,"lo1":-89.0895,"lo2":-89.0444,"dx":0.0017,"dy":0.0017,"nx":28,"ny":28,"refTime":"2022-12-14T15:00:00:Z","depth":0,"parameterNumber":2,"parameterNumberName":"U-component_of_WINDS"},"data":[0,0,0,0,0,0,0,0,0,0,0,0,0,0,0,0,0,0,0,0,0,0,0,0,0,0,0,0,0,0,0,0,0,0,0,0,0,0,0,0,0,0,0,0,0,0,0,0,0,0,0,0,0,0,0,0,0,0,1.7944,1.7944,0,1.7976,1.7977,1.7977,1.7947,1.7946,1.7944,1.7943,1.7974,1.7976,1.7978,0,0,0,0,0,0,0,0,0,0,0,0,0,1.7855,1.7857,1.7944,1.7944,1.7945,1.7976,1.7977,1.7977,1.7947,1.7945,1.7944,1.7943,1.7973,1.7976,1.7978,0,0,0,0,0,0,0,0,0,0,0,0,0,1.7891,1.7857,1.7944,1.7934,1.7933,1.7976,1.7977,1.7977,1.7947,1.7945,1.7944,1.7942,1.7973,1.7975,1.7978,1.8032,0,0,1.7987,1.7988,0,0,0,0,0,0,0,0,1.7889,1.7894,1.7935,1.7934,1.7934,1.7956,1.7956,1.7996,1.7948,1.7942,1.7943,1.7941,1.7969,1.7972,1.7982,1.8034,1.8035,1.7987,1.7989,1.799,1.7991,0,0,0,0,0,0,0,1.7886,1.7893,1.7957,1.7935,1.7935,1.7927,1.793,1.7964,1.7965,1.7942,1.794,1.7944,1.7969,1.7979,1.7983,1.8036,1.7987,1.799,1.7992,1.7993,1.8133,1.8135,0,0,0,0,0,0,1.7885,1.7891,1.7956,1.7958,1.7907,1.793,1.7933,1.795,1.7965,1.7965,1.7946,1.7943,1.7975,1.7979,1.7984,1.8047,1.799,1.7993,1.7995,1.8131,1.8133,1.8136,0,0,0,0,0,0,1.7884,1.7891,1.7954,1.7924,1.7931,1.7933,1.7953,1.7952,1.7963,1.7968,1.7967,1.7957,1.7974,1.798,1.8021,1.8048,1.7994,1.7997,1.8129,1.8132,1.8135,1.8176,0,0,0,0,0,0,1.7881,1.7891,1.7912,1.7924,1.7933,1.7991,1.7954,1.7954,1.7968,1.7965,1.7978,1.7978,1.7973,1.8016,1.8023,1.8051,1.7999,1.8126,1.813,1.8134,1.8172,1.818,1.8186,0,0,0,0,0,1.7878,1.7922,1.7913,1.7921,1.7959,1.7993,1.7998,1.7991,1.7971,1.7991,1.7994,1.7978,1.8044,1.8021,1.8029,1.8057,1.8124,1.8129,1.8133,1.8169,1.8178,1.8186,0,0,0,0,0,0,1.7911,1.7923,1.7914,1.7963,1.7977,1.7988,1.8014,1.8002,1.8022,1.8017,1.8008,1.8012,1.8055,1.806,1.8034,1.8111,1.8081,1.8087,1.8105,1.8114,1.8121,1.8118,1.8002,0,0,0,0,0,1.7925,1.7952,1.796,1.8003,1.8011,1.8011,1.8026,1.802,1.8034,1.804,1.8046,1.806,1.8084,1.8099,1.8122,1.8173,1.8175,1.8197,1.8204,1.821,1.8215,1.8242,1.8252,1.815,1.815,1.815,0,0,1.7952,1.7962,1.7979,1.801,1.802,1.8048,1.8016,1.8047,1.8067,1.8044,1.8083,1.8088,1.8103,1.815,1.817,1.8155,1.8244,1.8216,1.8221,1.8222,1.8248,1.8257,1.8266,1.8153,1.8153,1.8152,0,0,1.8015,1.8026,1.8062,1.8074,1.809,1.809,1.8099,1.8112,1.8115,1.8154,1.8138,1.8161,1.8203,1.8214,1.8225,1.8295,1.828,1.8302,1.834,1.8366,1.8374,1.8381,1.8405,1.8413,1.8307,1.8308,1.8308,0,1.8046,1.8088,1.8082,1.8114,1.8128,1.811,1.8146,1.8157,1.818,1.819,1.8173,1.8226,1.8234,1.8283,1.83,1.831,1.8319,1.83,1.8374,1.8381,1.8387,1.8409,1.8418,1.831,1.831,1.831,1.8309,0,1.8125,1.8154,1.8182,1.8205,1.8222,1.8256,1.8255,1.8273,1.8266,1.8268,1.8308,1.8319,1.8343,1.8354,1.8347,1.8402,1.8392,1.8375,1.8345,1.8399,1.842,1.8429,1.8314,1.8313,1.8312,1.8311,0,0,1.8208,1.8229,1.8239,1.825,1.8268,1.829,1.8323,1.8347,1.8363,1.838,1.8406,1.8443,1.8427,1.844,1.8435,1.8458,1.8511,1.8438,1.8438,1.845,1.8571,1.8583,1.8593,1.8502,1.8504,1.8505,1.8569,0,1.8272,1.833,1.8326,1.8381,1.8408,1.8391,1.842,1.8434,1.8437,1.846,1.8463,1.8488,1.8466,1.8474,1.8497,1.85,1.8535,1.8496,1.8526,1.8527,1.8521,1.8604,1.8616,1.8676,1.8578,1.8579,1.858,0,1.8353,1.8373,1.8431,1.8445,1.8456,1.8482,1.8504,1.8526,1.8541,1.8542,1.8557,1.8548,1.8581,1.8551,1.8596,1.857,1.8582,1.8586,1.8588,1.8589,1.8556,1.8606,1.8695,1.8703,1.8593,1.8592,1.8591,0,1.8406,1.8449,1.8488,1.8498,1.8516,1.8534,1.8542,1.8556,1.8571,1.859,1.86,1.8623,1.8635,1.8653,1.865,1.8629,1.8695,1.8666,1.8696,1.8696,1.8709,1.8708,1.88,1.872,1.872,1.872,1.8719,0,1.8476,1.8512,1.8513,1.8537,1.8576,1.8572,1.8611,1.8617,1.8629,1.8654,1.8642,1.8665,1.8661,1.8684,1.8682,1.8719,1.8725,1.8725,1.8724,1.8726,1.8725,1.8732,1.8728,1.8722,1.8721,1.8721,1.8721,0,1.8542,1.8544,1.8586,1.86,1.8605,1.8633,1.8644,1.8667,1.867,1.8701,1.8708,1.8712,1.8739,1.8738,1.8768,1.8767,1.8812,1.8807,1.8807,1.8806,1.8835,1.8832,1.8934,1.8946,1.886,1.886,1.8861,0,1.8586,1.8613,1.863,1.8646,1.8656,1.8682,1.8697,1.8695,1.8711,1.8731,1.8751,1.8777,1.8797,1.8841,1.8846,1.8869,1.8863,1.8897,1.8866,1.8867,1.8862,1.886,1.8862,1.8903,1.8904,1.8904,1.8905,0,1.8663,1.8663,1.8686,1.871,1.8729,1.8748,1.8765,1.8779,1.8778,1.8797,1.8824,1.884,1.8872,1.8897,1.892,1.8927,1.8916,1.8915,1.8923,1.8924,1.8922,1.8922,1.8822,1.8912,1.8912,1.8911,1.8911,1.891,1.8718,1.8741,1.8757,1.8783,1.8796,1.8813,1.8835,1.8841,1.8864,1.889,1.8887,1.8917,1.8932,1.8961,1.8971,1.8994,1.8982,1.8994,1.8997,1.8999,1.9002,1.892,1.8999,1.8998,1.8998,1.8998,1.8998,0,1.8793,1.8803,1.8827,1.8852,1.8873,1.8862,1.888,1.8898,1.8925,1.8941,1.8962,1.8993,1.9018,1.9026,1.905,1.9067,1.9062,1.9073,1.9071,1.9073,1.9012,1.9002,1.9076,1.9076,1.9076,1.9076,1.9076,1.9076,1.8834,1.8873,1.8875,1.892,1.8929,1.896,1.8971,1.8986,1.8998,1.9034,1.9055,1.9061,1.9073,1.9098,1.912,1.9121,1.913,1.9143,1.9142,1.9085,1.9077,1.9069,1.906,1.9145,1.9145,1.92,1.9201,1.9201]},{"header":{"parameterUnit":"m.s-1","parameterCategory":1,"la1":30.2991,"la2":30.254,"lo1":-89.0895,"lo2":-89.0444,"dx":0.0017,"dy":0.0017,"nx":28,"ny":28,"refTime":"2022-12-14T15:00:00:Z","depth":0,"parameterNumber":3,"parameterNumberName":"V-component_of_WINDS"},"data":[0,0,0,0,0,0,0,0,0,0,0,0,0,0,0,0,0,0,0,0,0,0,0,0,0,0,0,0,0,0,0,0,0,0,0,0,0,0,0,0,0,0,0,0,0,0,0,0,0,0,0,0,0,0,0,0,0,0,-3.187,-3.1871,0,-3.2033,-3.2035,-3.2037,-3.202,-3.2017,-3.2014,-3.2012,-3.2178,-3.2185,-3.2192,0,0,0,0,0,0,0,0,0,0,0,0,0,-3.1544,-3.155,-3.187,-3.1872,-3.1874,-3.2033,-3.2035,-3.2037,-3.202,-3.2017,-3.2014,-3.2011,-3.2176,-3.2184,-3.2192,0,0,0,0,0,0,0,0,0,0,0,0,0,-3.1694,-3.1552,-3.1869,-3.1884,-3.1887,-3.2032,-3.2035,-3.2038,-3.2021,-3.2017,-3.2013,-3.2009,-3.2173,-3.2183,-3.2193,-3.2333,0,0,-3.2225,-3.2229,0,0,0,0,0,0,0,0,-3.1685,-3.1706,-3.188,-3.1884,-3.1887,-3.2002,-3.1981,-3.2137,-3.2022,-3.197,-3.2012,-3.2008,-3.2123,-3.2137,-3.2176,-3.2341,-3.2348,-3.2226,-3.2232,-3.2236,-3.2239,0,0,0,0,0,0,0,-3.1675,-3.1699,-3.1934,-3.1883,-3.1887,-3.1883,-3.19,-3.201,-3.2066,-3.1974,-3.1973,-3.1993,-3.2124,-3.2166,-3.218,-3.2351,-3.2225,-3.2234,-3.2241,-3.2245,-3.264,-3.2645,0,0,0,0,0,0,-3.1661,-3.169,-3.1929,-3.1939,-3.1775,-3.1892,-3.1911,-3.1969,-3.2065,-3.2076,-3.1996,-3.1992,-3.215,-3.2168,-3.2185,-3.2357,-3.2236,-3.2246,-3.2252,-3.2636,-3.2641,-3.2646,0,0,0,0,0,0,-3.1654,-3.1682,-3.1922,-3.1815,-3.1845,-3.1902,-3.1967,-3.1974,-3.2016,-3.2081,-3.2091,-3.2029,-3.2148,-3.2171,-3.2297,-3.2362,-3.225,-3.226,-3.2631,-3.2638,-3.2644,-3.2699,0,0,0,0,0,0,-3.1645,-3.168,-3.1734,-3.1816,-3.1851,-3.2031,-3.1971,-3.198,-3.2034,-3.203,-3.2115,-3.2125,-3.2147,-3.2282,-3.2307,-3.2374,-3.2268,-3.2625,-3.2634,-3.2642,-3.2692,-3.2707,-3.272,0,0,0,0,0,-3.1633,-3.1742,-3.1736,-3.1765,-3.1919,-3.2035,-3.2055,-3.2078,-3.2039,-3.2094,-3.2136,-3.2122,-3.2351,-3.2295,-3.2323,-3.2394,-3.2621,-3.2631,-3.2641,-3.2686,-3.2704,-3.2719,0,0,0,0,0,0,-3.1666,-3.1753,-3.1748,-3.1887,-3.1954,-3.2032,-3.2102,-3.2097,-3.2176,-3.2169,-3.2194,-3.2213,-3.234,-3.238,-3.2316,-3.2535,-3.2481,-3.2497,-3.2505,-3.2523,-3.2537,-3.2525,-3.2276,0,0,0,0,0,-3.1689,-3.1776,-3.1848,-3.1964,-3.1998,-3.2044,-3.2096,-3.2108,-3.2178,-3.2206,-3.2257,-3.2326,-3.2413,-3.247,-3.2554,-3.2697,-3.2716,-3.276,-3.2774,-3.2785,-3.2799,-3.2879,-3.29,-3.2678,-3.2678,-3.2678,0,0,-3.1738,-3.1797,-3.185,-3.1972,-3.2025,-3.2115,-3.2068,-3.2165,-3.2232,-3.2221,-3.2343,-3.2383,-3.2462,-3.2597,-3.266,-3.2634,-3.2864,-3.2798,-3.2806,-3.2814,-3.2891,-3.2912,-3.2931,-3.2685,-3.2684,-3.2683,0,0,-3.1874,-3.1927,-3.203,-3.2084,-3.2166,-3.2196,-3.2221,-3.2301,-3.2327,-3.2451,-3.2444,-3.2525,-3.2674,-3.2731,-3.2779,-3.2938,-3.2929,-3.2964,-3.3037,-3.3115,-3.3132,-3.3148,-3.3206,-3.3226,-3.2978,-3.2978,-3.2978,0,-3.1925,-3.206,-3.2083,-3.2182,-3.2236,-3.223,-3.2335,-3.2387,-3.2492,-3.2529,-3.2499,-3.2688,-3.274,-3.289,-3.2929,-3.2967,-3.2997,-3.2955,-3.3128,-3.3144,-3.3159,-3.3214,-3.3236,-3.2982,-3.2981,-3.2981,-3.298,0,-3.2119,-3.2214,-3.2287,-3.2389,-3.2451,-3.2552,-3.2591,-3.2651,-3.2658,-3.2692,-3.2818,-3.2881,-3.2978,-3.3014,-3.3021,-3.3165,-3.3147,-3.3122,-3.3068,-3.3184,-3.3236,-3.3257,-3.2987,-3.2986,-3.2985,-3.2984,0,0,-3.228,-3.2394,-3.2421,-3.2468,-3.2558,-3.2631,-3.2732,-3.2828,-3.2879,-3.2952,-3.3038,-3.3165,-3.3144,-3.3199,-3.3212,-3.3281,-3.3404,-3.3248,-3.325,-3.3276,-3.3567,-3.3586,-3.361,-3.3398,-3.3402,-3.3406,-3.3561,0,-3.2425,-3.2605,-3.2629,-3.2788,-3.2876,-3.2872,-3.296,-3.3026,-3.306,-3.3139,-3.3177,-3.3267,-3.3231,-3.3265,-3.3332,-3.3374,-3.3463,-3.3363,-3.3479,-3.3483,-3.346,-3.3637,-3.3657,-3.3801,-3.3582,-3.3585,-3.3588,0,-3.2619,-3.2698,-3.2866,-3.2945,-3.2983,-3.3062,-3.3152,-3.3228,-3.3302,-3.3322,-3.3384,-3.339,-3.3495,-3.3436,-3.3582,-3.3514,-3.3563,-3.3591,-3.3597,-3.3609,-3.3543,-3.3655,-3.3847,-3.3869,-3.362,-3.3617,-3.3615,0,-3.2721,-3.2869,-3.2989,-3.3029,-3.3124,-3.318,-3.3222,-3.3292,-3.3349,-3.3427,-3.3464,-3.3554,-3.3603,-3.3673,-3.3703,-3.3657,-3.3847,-3.3791,-3.3868,-3.3867,-3.3908,-3.3905,-3.4112,-3.3938,-3.3938,-3.3938,-3.3937,0,-3.2881,-3.2984,-3.3036,-3.311,-3.3226,-3.3252,-3.3366,-3.3406,-3.3469,-3.3551,-3.3553,-3.363,-3.3665,-3.3747,-3.3771,-3.3889,-3.3911,-3.393,-3.3936,-3.3931,-3.3929,-3.3964,-3.3955,-3.3943,-3.3942,-3.3941,-3.394,0,-3.3014,-3.3053,-3.3184,-3.3264,-3.3286,-3.3368,-3.3436,-3.3508,-3.3542,-3.3646,-3.3672,-3.3725,-3.3822,-3.3859,-3.3977,-3.3993,-3.413,-3.4126,-3.4105,-3.4107,-3.4182,-3.4175,-3.4419,-3.4453,-3.4256,-3.4258,-3.4259,0,-3.3115,-3.3194,-3.3283,-3.3338,-3.3382,-3.3471,-3.3529,-3.3558,-3.3618,-3.371,-3.3771,-3.3868,-3.3947,-3.4103,-3.4152,-3.4243,-3.4242,-3.4322,-3.4256,-3.4249,-3.4245,-3.424,-3.4249,-3.4334,-3.4336,-3.4337,-3.4339,0,-3.3289,-3.3304,-3.3387,-3.3478,-3.3547,-3.362,-3.369,-3.3735,-3.3776,-3.3843,-3.3943,-3.4005,-3.4126,-3.4223,-3.4316,-3.436,-3.4357,-3.4359,-3.4382,-3.4378,-3.4363,-3.4374,-3.4139,-3.4353,-3.4352,-3.4351,-3.435,-3.4349,-3.341,-3.3481,-3.3554,-3.3647,-3.3704,-3.377,-3.3842,-3.3885,-3.3969,-3.407,-3.4082,-3.419,-3.4263,-3.4389,-3.4436,-3.4521,-3.45,-3.4533,-3.4541,-3.4549,-3.4555,-3.4349,-3.4538,-3.4538,-3.4537,-3.4537,-3.4537,0,-3.3585,-3.3632,-3.3718,-3.3817,-3.389,-3.3881,-3.3959,-3.4021,-3.4116,-3.4184,-3.4262,-3.4378,-3.4472,-3.4529,-3.4623,-3.4681,-3.4682,-3.4704,-3.4701,-3.4711,-3.4568,-3.4539,-3.4702,-3.4702,-3.4702,-3.4702,-3.4702,-3.4702,-3.3685,-3.3805,-3.3829,-3.3978,-3.4024,-3.413,-3.4176,-3.4237,-3.4292,-3.4421,-3.4499,-3.4536,-3.46,-3.47,-3.4786,-3.48,-3.4835,-3.486,-3.4873,-3.4738,-3.4721,-3.4705,-3.4678,-3.4868,-3.4868,-3.501,-3.5011,-3.5012]}]]